This is the latest recevied weather packets stored in our database for station/object N7WSS. If no packets are shown the sender has not sent any weather packets the latest 10 day(s).
| Time | Temp. | Humidity | Pressure | Rain* | Wind** | Luminosity | Snow |
|---|---|---|---|---|---|---|---|
| 1777543171 | 14.44° C | 29% | 1010.9 hPa | 0 mm | - | - | - |
| 1777542867 | 14.44° C | 30% | 1010.8 hPa | 0 mm | - | - | - |
| 1777542565 | 15° C | 29% | 1011.3 hPa | 0 mm | - | - | - |
| 1777542260 | 15° C | 29% | 1011.1 hPa | 0 mm | - | - | - |
| 1777541958 | 15.56° C | 29% | 1010.9 hPa | 0 mm | - | - | - |
| 1777541655 | 15.56° C | 28% | 1010.7 hPa | 0 mm | - | - | - |
| 1777541352 | 15.56° C | 28% | 1011.3 hPa | 0 mm | - | - | - |
| 1777541047 | 15.56° C | 29% | 1011.3 hPa | 0 mm | - | - | - |
| 1777540745 | 15.56° C | 28% | 1011.1 hPa | 0 mm | - | - | - |
| 1777540443 | 15.56° C | 28% | 1010.9 hPa | 0 mm | - | - | - |
| 1777540138 | 16.11° C | 27% | 1011.3 hPa | 0 mm | - | - | - |
| 1777539833 | 16.11° C | 27% | 1010.9 hPa | 0 mm | - | - | - |
| 1777539530 | 16.11° C | 27% | 1010.9 hPa | 0 mm | - | - | - |
| 1777539226 | 15.56° C | 28% | 1011.3 hPa | 0 mm | - | - | - |
| 1777538924 | 15.56° C | 28% | 1011.2 hPa | 0 mm | - | - | - |
| 1777538619 | 15.56° C | 27% | 1011.5 hPa | 0 mm | - | - | - |
| 1777538314 | 15° C | 27% | 1011.4 hPa | 0 mm | - | - | - |
| 1777538010 | 15° C | 28% | 1011.2 hPa | 0 mm | - | - | - |
| 1777537706 | 15° C | 28% | 1011.6 hPa | 0 mm | - | - | - |
| 1777537403 | 15° C | 28% | 1011.7 hPa | 0 mm | - | - | - |
| 1777537099 | 15.56° C | 28% | 1011.7 hPa | 0 mm | - | - | - |
| 1777536795 | 15.56° C | 28% | 1011.7 hPa | 0 mm | - | - | - |
| 1777536493 | 15.56° C | 28% | 1011.8 hPa | 0 mm | - | - | - |
| 1777536189 | 16.11° C | 27% | 1011.9 hPa | 0 mm | - | - | - |
| 1777535885 | 16.67° C | 28% | 1012 hPa | 0 mm | - | - | - |
* Rain latest hour (hover to see other rain measurements)
** Current wind speed in m/s (hover to see current wind gust speed)